Flag for Germany Weather past 2 weeks in Biberach an der Riss, Baden-Württemberg, Germany

Now
63 °F

Broken clouds.


Feels Like: 63 °F
Forecast: 48 / 71 °F
Wind: 3 mph from Northeast

Location: Laupheim Airport

Current Time: Aug 27, 2014 at 4:55:38 PM

Latest Report: Aug 27, 2014 at 4:20 PM


Visibility: N/A

Pressure: 30.04 "Hg

Humidity: 77%

Dew point: 55 °F

Location of Biberach an der RissLocation

Historic Weather in Biberach an der Riss — Graph

°F

Biberach an der Riss temperature yesterday

Maximum temperature yesterday: 64 °F (at 11:20 AM)
Minimum temperature yesterday: 54 °F (at 1:20 AM)
Average temperature yesterday: 60 °F

Past Weeks' High & Low Weather Summary

 TemperatureHumidityPressure
High70 °F (Aug 12, 5:20 PM)100% (Aug 13, 8:20 AM)30.18 "Hg (Aug 13, 8:20 AM)
Low45 °F (Aug 22, 6:20 AM)43% (Aug 19, 5:20 PM)29.68 "Hg (Aug 13, 1:20 PM)
Average57 °F77%29.98 "Hg
* Reported Aug 12 3:20 PM — Aug 27 3:20 PM, Biberach an der Riss, Weather by CustomWeather, © 2014

Note: Actual official high and low records may vary slightly from our data, if they occured in-between our weather recording intervals... More about our weather records

Advertising

Biberach an der Riss weather history for previous 24 hours

 ConditionsComfort  
Time TempWeatherWind HumidityBarometerVisibility
3:20 PM
Aug 27
63 °FBroken clouds.6 mph73%30.04 "HgN/A
2:20 PM61 °FSprinkles. Broken clouds.5 mph83%30.04 "HgN/A
1:20 PM61 °FBroken clouds.5 mph83%30.01 "HgN/A
12:20 PM57 °FSprinkles. Broken clouds.3 mph94%30.01 "HgN/A
11:49 AM61 °FSprinkles. Fog.8 mph83%30.01 "Hg2 mi
11:20 AM61 °FScattered showers. Broken clouds.14 mph83%29.98 "Hg3 mi
10:20 AM59 °FBroken clouds.12 mph88%29.98 "HgN/A
9:20 AM59 °FBroken clouds.12 mph88%29.95 "HgN/A
8:20 AM57 °FLight rain. Broken clouds.8 mph94%29.95 "HgN/A
7:20 AM57 °FLight rain. Partly cloudy.10 mph94%29.92 "HgN/A
6:20 AM55 °FLight rain. Overcast.9 mph100%29.89 "HgN/A
5:20 AM55 °FPartly cloudy.8 mph94%29.89 "HgN/A
4:20 AM55 °FPassing clouds.10 mph94%29.86 "HgN/A
3:20 AM55 °FPassing clouds.7 mph94%29.86 "HgN/A
2:20 AM57 °FLight rain. Mostly cloudy.7 mph94%29.83 "HgN/A
1:20 AM59 °FLight rain. Partly cloudy.12 mph82%29.83 "HgN/A
12:20 AM61 °FPassing clouds.15 mph77%29.83 "HgN/A
11:20 PM
Aug 26
61 °FPassing clouds.13 mph83%29.83 "HgN/A
10:20 PM61 °FPartly cloudy.10 mph88%29.80 "HgN/A
9:20 PM61 °FPartly cloudy.10 mph94%29.80 "HgN/A
9:00 PM61 °FLight rain. Broken clouds.14 mph94%29.80 "HgN/A
8:20 PM63 °FLight rain. Partly sunny.12 mph88%29.77 "HgN/A
7:20 PM63 °FPartly sunny.13 mph83%29.77 "HgN/A
6:20 PM64 °FBroken clouds.13 mph83%29.77 "HgN/A
5:20 PM64 °FBroken clouds.12 mph78%29.77 "HgN/A
4:20 PM64 °FBroken clouds.14 mph78%29.77 "HgN/A
Weather by CustomWeather, © 2014

See weather overviewHow to use our weather pages